This is the latest recevied weather packets stored in our database for station/object KB2KMM. If no packets are shown the sender has not sent any weather packets the latest 10 day(s).
| Time | Temp. | Humidity | Pressure | Rain* | Wind** | Luminosity | Snow |
|---|---|---|---|---|---|---|---|
| 1777911610 | 16.67° C | 34% | 1012.7 hPa | 0 mm | - | - | - |
| 1777911305 | 17.22° C | 33% | 1012.7 hPa | 0 mm | - | - | - |
| 1777911008 | 17.22° C | 33% | 1012.8 hPa | 0 mm | - | - | - |
| 1777910705 | 16.67° C | 33% | 1012.8 hPa | 0 mm | - | - | - |
| 1777910405 | 16.67° C | 30% | 1013 hPa | 0 mm | - | - | - |
| 1777910105 | 16.67° C | 28% | 1013.1 hPa | 0 mm | - | - | - |
| 1777909810 | 16.67° C | 30% | 1013.1 hPa | 0 mm | - | - | - |
| 1777909505 | 16.67° C | 29% | 1013.3 hPa | 0 mm | - | - | - |
| 1777909208 | 16.67° C | 31% | 1013.3 hPa | 0 mm | - | - | - |
| 1777908905 | 16.67° C | 31% | 1013.3 hPa | 0 mm | - | - | - |
| 1777908609 | 16.67° C | 32% | 1013.4 hPa | 0 mm | - | - | - |
| 1777908305 | 16.11° C | 33% | 1013.4 hPa | 0 mm | - | - | - |
| 1777908011 | 16.11° C | 33% | 1013.5 hPa | 0 mm | - | - | - |
| 1777907705 | 16.11° C | 34% | 1013.5 hPa | 0 mm | - | - | - |
| 1777907407 | 16.11° C | 33% | 1013.5 hPa | 0 mm | - | - | - |
| 1777907106 | 16.11° C | 34% | 1013.6 hPa | 0 mm | - | - | - |
| 1777906805 | 16.11° C | 34% | 1013.6 hPa | 0 mm | - | - | - |
| 1777906505 | 16.11° C | 34% | 1013.6 hPa | 0 mm | - | - | - |
| 1777906209 | 15.56° C | 34% | 1013.6 hPa | 0 mm | - | - | - |
| 1777905905 | 15.56° C | 34% | 1013.6 hPa | 0 mm | - | - | - |
| 1777905609 | 15.56° C | 31% | 1013.6 hPa | 0 mm | - | - | - |
| 1777905305 | 15.56° C | 31% | 1013.7 hPa | 0 mm | - | - | - |
| 1777905009 | 15.56° C | 33% | 1013.6 hPa | 0 mm | - | - | - |
| 1777904705 | 15.56° C | 33% | 1013.5 hPa | 0 mm | - | - | - |
| 1777904409 | 15.56° C | 34% | 1013.6 hPa | 0 mm | - | - | - |
* Rain latest hour (hover to see other rain measurements)
** Current wind speed in m/s (hover to see current wind gust speed)